CW2654 Weather Reports


Display with metric or nautical units.
time (UTC)temp
F
wind
direction
speed
MPH
gust
MPH
rain 1hr
in
rain 24hr
in
rain mn
in
humidity
%
barometer
mb
20260505183102 55 0 0.0 2.0 0.00 0.00 0.00 88 1016.9
20260505181556 55 0 0.0 1.0 0.00 0.00 0.00 89 1016.8
20260505180053 54 0 0.0 1.0 0.00 0.00 0.00 91 1016.8
20260505174553 54 0 0.0 3.0 0.00 0.00 0.00 91 1016.7
20260505173053 54 0 0.0 1.0 0.00 0.00 0.00 92 1016.7
20260505171550 53 0 0.0 3.0 0.00 0.00 0.00 93 1016.5
20260505170056 53 0 0.0 2.0 0.00 0.00 0.00 92 1016.6
20260505164609 53 0 0.0 1.0 0.00 0.00 0.00 94 1016.4
20260505163104 52 0 0.0 2.0 0.00 0.00 0.00 94 1016.4
20260505161601 52 0 0.0 4.0 0.00 0.00 0.00 95 1016.5
20260505160109 52 0 0.0 4.0 0.00 0.00 0.00 95 1016.3
20260505153110 52 0 0.0 1.0 0.00 0.00 0.00 96 1016.2
20260505151556 52 0 0.0 3.0 0.00 0.00 0.00 96 1016.0
20260505130111 51 0 0.0 3.0 0.00 0.00 0.00 94 1015.3
20260505124610 52 0 1.0 7.0 0.00 0.00 0.00 93 1015.2
20260505123108 52 0 0.0 4.0 0.00 0.00 0.00 92 1015.3
20260505121555 52 208 1.0 4.0 0.00 0.00 0.00 91 1015.2
20260505120101 52 0 0.0 5.0 0.00 0.00 0.00 91 1015.3
20260505114555 53 0 0.0 1.0 0.00 0.00 0.00 91 1015.1
20260505113056 53 0 0.0 2.0 0.00 0.00 0.00 90 1015.1
20260505111553 53 0 0.0 3.0 0.00 0.00 0.00 90 1014.9
20260505110107 53 0 0.0 2.0 0.00 0.00 0.00 90 1014.7
20260505101554 53 0 0.0 2.0 0.00 0.00 0.00 89 1014.5
20260505100053 53 0 0.0 4.0 0.00 0.00 0.00 89 1014.5
20260505094552 54 0 0.0 7.0 0.00 0.00 0.00 88 1014.5
20260505093054 54 0 0.0 10.0 0.00 0.00 0.00 88 1014.4
20260505091605 54 128 3.0 11.0 0.00 0.00 0.00 88 1014.3
20260505090051 54 136 0.0 7.0 0.00 0.00 0.00 88 1014.3
20260505084553 55 248 1.0 6.0 0.00 0.00 0.00 87 1014.2
20260505083056 55 0 0.0 5.0 0.00 0.00 0.00 86 1014.1
20260505081555 55 0 1.0 7.0 0.00 0.00 0.00 86 1014.0
20260505080106 56 124 1.0 9.0 0.00 0.00 0.00 85 1013.9
20260505074552 57 171 2.0 8.0 0.00 0.00 0.00 83 1013.9
20260505073058 58 0 0.0 7.0 0.00 0.00 0.00 82 1013.7
20260505071555 59 223 1.0 9.0 0.00 0.00 0.00 81 1013.6
20260505070101 59 0 0.0 6.0 0.00 0.00 0.00 79 1013.4
20260505064553 60 227 1.0 5.0 0.00 0.00 0.00 79 1013.1
20260505063111 61 261 0.0 7.0 0.00 0.00 0.00 80 1013.0
20260505061604 61 0 1.0 5.0 0.00 0.00 0.00 81 1012.7
20260505060055 61 0 1.0 9.0 0.00 0.00 0.00 81 1012.7
20260505054608 62 0 0.0 3.0 0.00 0.00 0.00 82 1012.5
20260505053100 62 134 1.0 8.0 0.00 0.00 0.00 81 1012.6
20260505051552 62 0 0.0 8.0 0.00 0.00 0.00 82 1012.6
20260505041557 59 0 1.0 3.0 0.00 0.00 0.00 89 1011.8
20260505040057 59 106 1.0 6.0 0.00 0.00 0.00 88 1011.9
20260505034550 60 98 1.0 4.0 0.00 0.00 0.00 86 1011.6
20260505033053 62 98 0.0 4.0 0.00 0.00 0.00 83 1011.4
20260505031604 63 0 1.0 6.0 0.00 0.00 0.00 80 1011.3
20260505030054 65 0 0.0 4.0 0.00 0.00 0.00 77 1011.2
20260505024603 66 127 1.0 5.0 0.00 0.00 0.00 75 1011.2
20260505023051 67 0 0.0 3.0 0.00 0.00 0.00 73 1011.0
20260505021555 67 203 1.0 7.0 0.00 0.00 0.00 72 1011.0
20260505020053 68 0 0.0 7.0 0.00 0.00 0.00 70 1011.0
20260505014607 68 171 0.0 6.0 0.00 0.00 0.00 69 1010.9
20260505013057 69 184 1.0 5.0 0.00 0.00 0.00 69 1010.9
20260505011603 69 0 1.0 7.0 0.00 0.00 0.00 68 1011.2
20260505010053 69 0 0.0 8.0 0.00 0.00 0.00 70 1011.3
20260505004554 70 160 0.0 3.0 0.00 0.00 0.00 68 1011.3
20260505003051 70 0 1.0 9.0 0.00 0.00 0.00 66 1011.3
20260505001550 70 213 2.0 8.0 0.00 0.00 0.00 66 1011.3
20260505000109 70 0 1.0 5.0 0.00 0.00 0.00 66 1011.5
20260504234551 70 245 2.0 8.0 0.00 0.00 0.00 67 1011.5
20260504233107 70 221 0.0 5.0 0.00 0.00 0.00 66 1011.4
20260504231555 70 257 1.0 7.0 0.00 0.00 0.00 66 1011.6
20260504230056 70 285 1.0 8.0 0.00 0.00 0.00 66 1011.5
20260504224557 69 155 2.0 8.0 0.00 0.00 0.00 66 1011.9
20260504223122 69 234 3.0 9.0 0.00 0.00 0.00 70 1012.0
20260504221600 69 219 1.0 7.0 0.00 0.00 0.00 69 1012.0
20260504220057 69 0 3.0 8.0 0.00 0.00 0.00 69 1012.3
20260504214554 68 0 0.0 5.0 0.00 0.00 0.00 73 1012.3
20260504213103 68 225 2.0 8.0 0.00 0.00 0.00 70 1012.5
20260504211600 68 0 2.0 9.0 0.00 0.00 0.00 72 1012.7
20260504210057 67 243 2.0 9.0 0.00 0.00 0.00 72 1013.0
20260504204550 66 271 1.0 7.0 0.00 0.00 0.00 74 1013.1
20260504203109 66 243 1.0 6.0 0.00 0.00 0.00 72 1013.0
20260504201559 66 227 1.0 7.0 0.00 0.00 0.00 74 1013.3
20260504200056 65 0 3.0 8.0 0.00 0.00 0.00 75 1013.2
20260504194552 65 185 1.0 6.0 0.00 0.00 0.00 76 1013.5
20260504193048 64 229 2.0 8.0 0.00 0.00 0.00 74 1013.5
20260504191557 64 101 2.0 8.0 0.00 0.00 0.00 75 1013.5
20260504190052 63 169 2.0 8.0 0.00 0.00 0.00 76 1013.8
20260504184551 62 132 2.0 7.0 0.00 0.00 0.00 77 1013.8